Regional Weather Roundup
Issued by NWS

Home | Current Version | Previous Version | Text Only | Print | Product List | Glossary Off
Versions: 1 2 3 4 5 6 7 8 9 10 11 12 13 14 15 16 17 18 19 20 21 22 23 24 25 26 27 28 29 30 31 32 33 34 35 36 37 38 39 40 41 42 43 44 45 46 47 48 49 50

000
ASUS43 KLOT 271404
RWRIL

ILLINOIS REGIONAL WEATHER ROUNDUP
NATIONAL WEATHER SERVICE CHICAGO/ROMEOVILLE IL
900 AM CDT TUE JUN 27 2017

NOTE: "FAIR" INDICATES FEW OR NO CLOUDS BELOW 12,000 FEET WITH NO
SIGNIFICANT WEATHER AND/OR OBSTRUCTIONS TO VISIBILITY.

* THESE STATIONS ARE NOT UNDER NWS QUALITY CONTROL. THEY ALSO MAY NOT
  REPORT WEATHER SUCH AS PRECIPITATION OR FOG.

ILZ001-002-007-009-015-016-024-271500-
NORTHWEST ILLINOIS

CITY           SKY/WX    TMP DP  RH WIND       PRES   REMARKS
MOLINE         SUNNY     66  49  54 W6        30.17R
STERLING*      SUNNY     64  50  60 W6        30.17R
SAVANNA*       SUNNY     63  51  65 CALM      30.16S
$$

ILZ003-004-008-010-011-017-018-271500-
NORTH CENTRAL ILLINOIS

CITY           SKY/WX    TMP DP  RH WIND       PRES   REMARKS
ROCKFORD       SUNNY     66  49  54 W7        30.16S
FREEPORT*      SUNNY     63  49  61 W5        30.17S
ROCHELLE*      SUNNY     63  50  61 W3        30.17R
DE KALB*       SUNNY     64  49  57 NW6       30.16S
PERU*          SUNNY     63  49  60 W7        30.17S
$$

ILZ005-006-012>014-019>023-271500-
NORTHEAST ILLINOIS

CITY           SKY/WX    TMP DP  RH WIND       PRES   REMARKS
CHICAGO-OHARE  MOSUNNY   66  46  48 NW8       30.13S
CHICAGO-MIDWAY MOSUNNY   66  46  48 W10       30.14S
AURORA         SUNNY     65  49  56 W6        30.16S
LANSING*       SUNNY     66  45  46 W9        30.16R
JOLIET*        SUNNY     66  48  51 W7        30.16S
WAUKEGAN       SUNNY     65  50  58 NW6       30.13R
DUPAGE AIRPORT SUNNY     65  49  56 W6        30.14S
WHEELING       SUNNY     65  49  56 NW8       30.15R
MORRIS*        SUNNY     65  47  51 W10       30.16R
ROMEOVILLE*    SUNNY     65  45  48 NW8       30.16S
$$

LMZ740>746-271500-
SOUTHERN LAKE MICHIGAN

STATION/POSITION SKY/WX   TEMP    WIND        PRES    VSBY  WAVE
                          AIR SEA DIR/SP/G                  HT/PER
                          (F)     (DEG/KT/KT) (MB)    (MI)  (FT/S)
SOUTHERN BUOY              60 61  300/ 12/ 14 1019.3          1/ 3
WILMETTE HARBOR            62 62  280/  6/  8   N/A           1/ 4
HARRISON CRIB              64     280/ 11/ 12   N/A
BURNHAM HARBOR             66                   N/A
CALUMET HARBOR             64     220/  5/  9 1020.1R
BURNS HARBOR               63     260/  6/  8 1021.3R
MICHIGAN CITY              61     240/  9/ 10   N/A
MICHIGAN CITY 6N           62 65  260/  8/ 10   N/A           2/ 5
ST. JOSEPH                 63 69  270/ 10/ 12 1020.7R         2/ 5
$$

ILZ025>027-034>036-040-047-049-050-058-095>099-271500-
WEST-CENTRAL ILLINOIS

CITY           SKY/WX    TMP DP  RH WIND       PRES   REMARKS
QUINCY         SUNNY     67  51  56 SE7       30.17R
GALESBURG*     SUNNY     64  52  64 CALM      30.19R
MACOMB*        SUNNY     64  53  65 CALM      30.20S
JACKSONVILLE*  SUNNY     65  53  65 SE3       30.18R
PITTSFIELD*    SUNNY     67  57  70 E5        30.18S
$$

ILZ028>032-037-038-041>044-048-051>054-059>061-271500-
CENTRAL ILLINOIS

CITY           SKY/WX    TMP DP  RH WIND       PRES   REMARKS
PONTIAC        SUNNY     65  49  57 SW3       30.18S
BLOOMINGTON    SUNNY     65  48  54 CALM      30.19R
DECATUR        SUNNY     66  47  50 CALM      30.18R
PEORIA         SUNNY     65  51  60 S3        30.18R
LACON*         SUNNY     63  52  67 SW6       30.17S
LINCOLN*       SUNNY     65  53  64 CALM      30.19R
SPRINGFIELD    SUNNY     68  55  63 CALM      30.18R
TAYLORVILLE    SUNNY     65  50  57 SE6       30.19R
$$

ILZ033-039-045-046-055>057-062-063-271500-
EAST-CENTRAL ILLINOIS

CITY           SKY/WX    TMP DP  RH WIND       PRES   REMARKS
CHAMPAIGN      SUNNY     67  46  47 N3        30.18R
RANTOUL*       SUNNY     67  51  58 CALM      30.18R
MATTOON        SUNNY     65  51  60 E3        30.18R
PARIS*         SUNNY     64  50  59 CALM      30.19R
$$

ILZ079-100>102-271500-
SOUTHWEST ILLINOIS

CITY           SKY/WX    TMP DP  RH WIND       PRES   REMARKS
ALTON          SUNNY     64  59  82 CALM      30.18
BELLEVILLE     SUNNY     67  58  72 NE3       30.18S
CAHOKIA*       SUNNY     69  57  65 CALM      30.17R
SPARTA*        SUNNY     66  55  66 CALM      30.18S
$$

ILZ064>066-069>071-074>076-080>082-084>086-088>090-092>094-271500-
SOUTH-CENTRAL ILLINOIS

CITY           SKY/WX    TMP DP  RH WIND       PRES   REMARKS
CARBONDALE     SUNNY     67  58  72 CALM      30.17S
CAIRO*           N/A     68  56  66 NE6       30.15F HAZE
EFFINGHAM*     SUNNY     67  54  63 E6        30.20R
MARION         SUNNY     70  54  56 MISG      30.18
MT. VERNON     SUNNY     68  53  58 CALM      30.18R
CENTRALIA*     SUNNY     69  55  61 CALM      30.17R
SALEM*         SUNNY     68  53  59 CALM      30.18R
METROPOLIS*    SUNNY     70  56  61 E6        30.17S
$$

ILZ067-068-072-073-078-083-087-091-271500-
SOUTHEAST ILLINOIS

CITY           SKY/WX    TMP DP  RH WIND       PRES   REMARKS
LAWRENCEVILLE  SUNNY     66  56  70 VRB3      30.18S
FLORA*         SUNNY     68  55  62 E3        30.18S
FAIRFIELD*     SUNNY     67  54  63 CALM      30.17S
HARRISBURG*    SUNNY     68  55  61 SE3       30.17S
ROBINSON*      SUNNY     63  56  76 NE3       30.19S
CARMI*         SUNNY     67  56  68 CALM      30.17S
$$

ABBREVIATIONS USED IN REMARKS
   TC - TEMPERATURE IN CELSIUS
  WCI - WIND CHILL INDEX
   HX - HEAT INDEX
  VSB - VISIBILITY
$$




USA.gov is the U.S. government's official web portal to all federal, state and local government web resources and services.